Location: Barcelona
(41.3830°N, 2.1830°E)
Time: 12:06:41
(UTC+02:00)

ISS - Pass Details

Date: 27 May 2020
Orbit: 417 x 419 km, 51.6° (Epoch: 31 May)

Event Time Altitude Azimuth Distance (km) Brightness Sun altitude
Rises 22:19:55 0° 308° (NW) 2,366 2.3 -10.7°
Reaches altitude 10° 22:22:33 10° 329° (NNW) 1,502 0.4 -11.1°
Maximum altitude 22:24:52 17° 12° (NNE) 1,141 -1.2 -11.4°
Drops below altitude 10° 22:27:11 10° 56° (NE) 1,501 -1.1 -11.7°
Enters shadow 22:28:56 - 72° (ENE) 2,050 -0.5 -12.0°
